THOR ABLESTAR DEB, 1099

Orbit data source: Space-Track

THOR ABLESTAR DEB, 1099 is space debris in LEO originally from a launch on Sun, 13 Dec 1964 UTC launched from the Air Force Western Test Range (AFWTR). Debris objects in space refer to the collection of defunct objects orbiting the Earth. Examples of debris include non-operational satellites, rocket bodies, and fragments generated from explosions, collisions, or faulty payload assembly.

Loading next visibility...
Identifier
1099, 1964-083G
Orbit
LEO
Country
Flag of USUS
Related business
Manufacturer
Unknown
Mission
Spacecraft
Bus & Motor
Unknown
Mass
Unknown
Launch date (UTC)
1964-12-13 (61 years ago)
Launch vehicle
Unknown
Launch site
Air Force Western Test Range (AFWTR)
Object type
Payload
Rocket body
Debris
Shape & HBR
Unknown shape, 0.5 m
Radar Cross Section
Medium (>0.1 m² and <1 m²)

Expand to show TLE details & history
Last TLE update: 5 hours ago

TLE from 5 hours ago
0 THOR ABLESTAR DEB
1  1099U 64083G   25295.12038088  .00000275  00000-0  33930-3 0  9998
2  1099  89.8202 142.5155 0037552 267.0432 210.7200 13.62742496949984
Epoch: 2025-10-22T02:53Z
TLE epoch observation values (Epoch: 2025-10-22T02:53:20.908Z)
Latitude
62.54163°
Longitude
-111.96439°
Altitude
1,060.496 km
Speed
7.316 km/s
True Right ascension
21h 28m 41s
True Declination
62° 24' 23"
Sunlit
Object was in daylight at epoch
Visualization orbit readout
Latitude
Unknown
Longitude
Unknown
Altitude
Unknown
Speed
Unknown
Apparent Right ascension
Unknown
Apparent Declination
Unknown
Sunlit
N/A
Visualization observer readout
Local Sidereal Time
03:17:39
Azimuth
Unknown
Elevation
Unknown
Doppler factor
Unknown
Orbital elements
Apogee altitude
1,050.565 km
Perigee altitude
994.981 km
Semi-major axis
7,400.91 km
Eccentricity
0.00376
Inclination
89.8202°
RAAN
142.5155°
Arg. of periapsis
267.0432°
True anomaly
210.50106°
Mean anomaly
210.72°
Eccentric anomaly
210.61044°
Mean motion
3.40891 °/min
Orbital period
105.61 mins
BSTAR
0.0003393
Loading maneuver chart data...
Computing Atmospheric mass density...

Documentation

Showing up to 5 results
|